Location: ?????????
(55.4351°N, 39.1457°E)
Time: 05:42:41
(UTC+00:00)

Daily predictions for brighter satellites

Satellite Brightness Start Highest point End
(mag) Time Altitude Azimuth Time Altitude Azimuth Time Altitude Azimuth
Cosmos 2322 Rocket 4.5 00:40:39 18° NNE 00:40:39 18° NNE 00:43:34 10° ENE
ATLAS 3B R/B 3.6 00:55:12 48° NNE 00:55:12 48° NNE 01:01:28 10° ENE
SL-16 R/B 4.0 01:05:03 25° NNE 01:05:03 25° NNE 01:09:38 10° E
Cosmos 1833 Rocket 3.9 01:11:36 38° E 01:11:36 38° E 01:16:04 10° NE
ACS3 Solar Sail 3.5 01:05:31 10° NNE 01:07:31 22° N 01:07:31 22° N
CZ-2C R/B 4.2 01:09:52 10° NNE 01:12:33 28° NE 01:12:33 28° NE
NOSS 3-1 (A) 4.2 01:27:45 48° N 01:28:01 49° NNE 01:35:30 10° E
Cosmos 2369 4.4 01:30:29 50° NE 01:30:29 50° NE 01:35:50 10° ESE
ADEOS Rocket 3.7 01:23:47 10° NNE 01:29:51 57° NNW 01:29:51 57° NNW
USA 59 Rocket 2.5 01:35:38 16° ESE 01:35:38 16° ESE 01:36:39 10° ESE
Cosmos 1980 Rocket 2.9 01:35:03 47° SE 01:35:03 47° SE 01:39:00 10° SE
SL-16 R/B 4.1 01:43:02 19° N 01:43:02 19° N 01:45:34 10° NNE
Cosmos 2333 Rocket 3.6 01:44:45 28° N 01:46:17 31° NE 01:51:24 10° E
USA 229 4.2 01:48:04 45° NNW 01:48:23 45° N 01:55:29 10° ENE
USA 229 DEB 4.2 01:48:10 45° NNW 01:48:29 45° N 01:55:34 10° ENE
USA 234 3.1 01:42:35 10° E 01:49:09 79° N 01:49:33 76° NW
Cosmos 2098 Rocket 3.9 01:49:34 63° NE 01:50:07 68° ENE 01:55:54 10° SSE
H-2A R/B 4.4 01:57:43 10° N 01:57:59 11° N 01:57:59 11° N
SL-4 R/B 4.3 02:04:25 17° ESE 02:04:25 17° ESE 02:05:24 10° E
COSMOS 2455 2.8 02:02:19 70° NNW 02:02:59 79° NE 02:09:02 10° SE
Cosmos 2360 Rocket 3.7 02:03:11 23° N 02:05:18 30° NE 02:10:13 10° E
Cosmos 2237 Rocket 4.1 02:08:42 16° N 02:09:14 17° N 02:12:46 10° NE
Cosmos 540 Rocket 4.1 02:06:49 23° S 02:09:46 53° ESE 02:14:46 10° NE
ARGOS 3.9 02:09:31 10° N 02:13:05 40° N 02:13:05 40° N
NOSS 3-1 (C) 3.8 02:13:14 51° NW 02:15:14 84° NE 02:23:34 10° SE
SeaSat 1 3.5 02:12:05 10° NNE 02:15:11 34° N 02:15:11 34° N
Celestis-02/Orion 38 4.4 02:12:49 10° NE 02:17:55 87° ESE 02:18:28 72° SSW
Cosmos 1606 Rocket 4.1 02:19:21 39° NNE 02:20:43 57° ENE 02:25:06 10° SSE
Meteor 2-12 Rocket 4.3 02:16:38 10° S 02:22:46 89° E 02:28:54 10° NNE
IRS-1D 4.1 02:19:31 10° NNE 02:24:25 55° ESE 02:29:21 10° S
Cosmos 2322 Rocket 3.4 02:22:27 23° NNW 02:25:18 38° NE 02:30:35 10° ESE
Cosmos 2219 Rocket 3.8 02:23:27 19° N 02:26:15 28° NNE 02:31:06 10° E
RESURS DK-1 2.7 02:26:59 62° ENE 02:26:59 62° ENE 02:30:31 10° NE
Cosmos 2237 4.2 02:25:47 44° NNW 02:27:41 78° NE 02:33:23 10° SE
Cosmos 909 Rocket 4.2 02:24:24 37° SW 02:27:44 84° NW 02:34:21 10° NE
Resurs 1-4 Rocket 4.4 02:24:30 10° N 02:24:32 10° N 02:24:32 10° N
ATLAS 5 CENTAUR R/B 2.3 02:29:04 34° ENE 02:29:04 34° ENE 02:31:18 10° ENE
COSMO-SKYMED 1 2.4 02:27:29 10° SSE 02:31:37 79° ENE 02:31:43 78° NE
Cosmos 1898 Rocket 3.4 02:32:28 51° NNW 02:33:52 90° ENE 02:39:07 10° SSE
ADEOS II 4.3 02:30:26 10° N 02:30:53 12° N 02:30:53 12° N
Cosmos 1346 Rocket 4.2 02:33:29 10° SSE 02:36:53 36° E 02:40:19 10° NNE
SJ-11-01 4.2 02:32:55 10° NNE 02:37:40 89° W 02:42:22 10° SSW
NOSS 3-4 (A) 3.1 02:37:38 51° WSW 02:39:05 80° NW 02:45:20 10° NE
NOSS 3-4 (C) 3.1 02:37:46 51° WSW 02:39:16 80° NW 02:45:30 10° NE
Aureole 1 Rocket 4.2 02:42:15 33° NW 02:45:28 66° WSW 02:52:48 10° SSE
ATLAS 3B R/B 3.6 02:42:27 31° NW 02:45:56 47° N 02:53:26 10° E
FengYun 1-2 T 4.1 02:41:15 10° NNE 02:46:56 79° WNW 02:52:35 10° SSW
Cosmos 1726 Rocket 3.6 02:46:35 23° N 02:49:23 77° ENE 02:53:43 10° SSE
SL-16 R/B 2.4 02:46:54 27° NNW 02:50:04 70° NE 02:55:44 10° SE
Cosmos 468 Rocket 4.2 02:46:29 10° SSW 02:51:43 71° ESE 02:56:55 10° NNE
CZ-2C R/B 3.2 02:48:03 10° N 02:51:46 35° NNW 02:51:46 35° NNW
DNEPR-1 R/B 3.3 02:52:16 58° WSW 02:53:03 81° NW 02:57:19 10° NE
ACS3 Solar Sail 3.4 02:49:17 10° N 02:51:33 18° NNW 02:51:33 18° NNW
Cosmos 1833 Rocket 2.8 02:53:18 43° W 02:54:39 53° NW 03:00:13 10° NNE
Cosmos 2082 Rocket 2.8 02:50:53 10° SSW 02:56:21 56° ESE 03:01:51 10° NE
Cosmos 1484 Rocket 4.0 02:53:32 10° NNE 02:56:47 36° E 02:59:58 10° SSE
CZ-4 R/B 3.7 02:52:20 10° NNE 02:57:03 87° ESE 03:01:42 10° SSW
BREEZE-M DEB (TANK) 4.0 02:56:24 18° SSW 02:57:21 21° S 03:01:07 10° ESE
SWAS 4.2 02:58:34 61° WNW 02:59:09 75° WSW 03:03:11 10° SSE
Cosmos 1933 3.3 02:59:39 53° SW 02:59:39 53° SW 03:02:54 10° S
Cosmos 2279 Rocket 4.4 02:58:02 33° NW 02:59:42 39° W 03:05:25 10° SSW
Tsikada Rocket 4.5 03:00:17 35° W 03:01:26 37° WNW 03:07:22 10° N
Cosmos 858 Rocket 4.4 02:58:41 25° NNW 03:01:46 85° ENE 03:06:57 10° SSE
Cosmos 1937 Rocket 3.3 03:01:14 31° NW 03:03:40 74° WSW 03:08:46 10° SSE
Cosmos 1763 Rocket 3.5 03:05:08 24° SW 03:08:15 58° WNW 03:13:26 10° NNE
Meteor 2-20 4.4 03:02:06 10° NNW 03:08:17 86° ENE 03:14:24 10° SSE
Cosmos 1892 Rocket 4.3 03:04:36 10° S 03:08:51 54° E 03:13:09 10° NNE
Cosmos 2278 3.7 03:07:54 22° NNW 03:11:43 82° NE 03:17:23 10° SE
Cosmos 2369 4.0 03:12:26 32° WNW 03:14:28 44° WSW 03:19:48 10° S
BREEZE-M DEB (TANK) 4.0 03:15:52 15° S 03:15:52 15° S 03:16:43 10° SSE
ADEOS Rocket 4.5 03:09:53 10° N 03:15:37 25° NW 03:16:46 24° WNW
NOSS 2-1 (D) 3.9 03:15:43 33° SW 03:15:50 33° SW 03:19:39 10° SSE
Cosmos 1980 Rocket 3.1 03:16:50 27° WSW 03:16:55 27° WSW 03:21:30 10° SSW
NOSS 2-1 (E) 3.7 03:17:54 37° WSW 03:18:16 38° SW 03:22:09 10° SSE
NOSS 3-1 (A) 3.9 03:15:08 25° NW 03:19:30 88° SW 03:27:58 10° SE
Cosmos 372 Rocket 4.4 03:18:32 32° WNW 03:19:47 37° WSW 03:24:25 10° S
Cosmos 1536 Rocket 3.7 03:16:13 10° SSW 03:20:32 50° WNW 03:24:52 10° N
USA 59 Rocket 0.7 03:21:19 28° WSW 03:21:34 29° SW 03:25:17 10° S
DMSP B5D1-3 4.5 03:20:58 10° S 03:26:03 65° WSW 03:31:11 10° NNW
SL-16 R/B 4.1 03:24:53 13° NNW 03:27:28 17° N 03:31:06 10° NE
IGS 5A 3.6 03:26:40 10° NNE 03:30:40 71° ESE 03:34:39 10° S
Meteor 2-20 Rocket 4.3 03:25:18 10° NNW 03:31:13 90° ESE 03:36:56 10° S
Cosmos 2333 Rocket 2.2 03:26:46 18° NW 03:31:16 86° WSW 03:37:02 10° SSE
Cosmos 2058 Rocket 3.0 03:26:47 10° NNW 03:31:16 84° W 03:35:42 10° S
Cosmos 2221 4.0 03:28:06 10° N 03:31:55 34° ENE 03:35:42 10° SE
USA 234 3.3 03:25:36 10° ESE 03:32:12 87° SSW 03:36:53 21° WNW
Cosmos 2058 4.2 03:37:37 20° NNW 03:37:37 20° NNW 03:39:31 10° N
Helios 1A Rocket 4.2 03:36:56 10° SW 03:38:15 17° SW 03:38:15 17° SW
SL-4 R/B 2.3 03:38:08 23° WSW 03:39:46 42° S 03:42:48 10° ESE
Cosmos 2026 Rocket 3.9 03:33:50 10° S 03:39:54 87° W 03:46:03 10° N
NOSS 2-1 (C) 4.4 03:39:23 22° WSW 03:40:10 24° SW 03:43:36 10° S
USA 229 4.3 03:35:30 19° NW 03:40:35 55° NNE 03:48:13 10° E
USA 229 DEB 4.3 03:35:36 19° NW 03:40:40 55° NNE 03:48:17 10° E
Timation 1 Rocket 4.3 03:37:28 10° SW 03:43:23 66° NW 03:49:21 10° NE
Meteor 1-26 Rocket 4.1 03:42:22 10° NNW 03:47:47 66° W 03:53:18 10° S
COSMOS 2455 3.7 03:45:29 20° WNW 03:48:26 30° WSW 03:53:31 10° S
Cosmos 2360 Rocket 2.2 03:44:56 13° NW 03:50:00 89° WSW 03:55:38 10° SSE
Cosmos 540 Rocket 4.0 03:46:46 10° WSW 03:51:29 36° NW 03:56:14 10° NNE
Cosmos 1553 Rocket 4.0 03:45:50 10° NNW 03:52:13 87° W 03:58:37 10° S
SeaSat 1 4.0 03:49:58 10° NNE 03:53:16 18° NNW 03:54:48 16° NW
Cosmos 1707 4.2 03:52:06 10° N 03:54:53 28° ENE 03:57:40 10° SE
Cosmos 2237 Rocket 3.8 03:50:42 10° NNW 03:55:19 25° NNE 03:59:55 10° E
Meteor 2-3 Rocket 3.7 03:50:45 10° SSW 03:56:29 66° WNW 04:02:11 10° N
Cosmos 1092 Rocket 4.0 03:52:57 10° SSW 03:59:15 75° WNW 04:05:31 10° N
Cosmos-2242 3.2 03:57:50 10° NNW 04:01:57 48° W 04:06:00 10° SSW
IRS-1D 4.2 03:59:03 10° N 04:03:22 31° WNW 04:07:42 10° WSW
RESURS DK-1 3.4 04:02:19 17° WNW 04:04:19 25° NW 04:07:41 10° NNE
Cosmos 841 Rocket 3.5 04:01:43 10° SW 04:06:55 65° WNW 04:12:10 10° NNE
COSMO-SKYMED 1 4.0 04:04:57 10° SW 04:07:28 16° W 04:08:03 15° WNW
Nadezhda 4 Rocket 4.4 04:02:09 10° SW 04:08:02 40° WNW 04:13:56 10° N
Cosmos 2322 Rocket 2.3 04:04:15 11° NW 04:09:42 64° WSW 04:15:18 10° SSE
ATLAS 5 CENTAUR R/B 1.7 04:08:34 17° WNW 04:10:32 33° NNW 04:13:55 10° NE
Cosmos 489 Rocket 4.5 04:04:24 10° SW 04:10:41 67° WNW 04:16:57 10° NNE
Cosmos 2219 Rocket 2.3 04:05:16 10° NNW 04:11:00 84° NE 04:16:39 10° SE
Cosmos 1346 Rocket 3.5 04:09:02 10° WSW 04:12:13 26° WNW 04:15:25 10° N
SL-08 R/B 3.4 04:08:57 10° SSE 04:13:32 79° ENE 04:18:14 10° NNW
Cosmos 1125 Rocket 3.9 04:08:20 10° NNW 04:13:37 66° ENE 04:18:51 10° SE
Okean 1 3.7 04:14:01 10° NNW 04:17:17 34° W 04:20:32 10° SSW
Resurs 01 Rocket 4.5 04:14:26 10° NE 04:17:19 17° E 04:20:11 10° SE
Cosmos 1437 Rocket 3.0 04:14:43 10° N 04:18:10 59° ENE 04:21:34 10° SSE
KORONAS-FOTON 4.2 04:15:08 10° N 04:18:29 54° ENE 04:21:48 10° SSE
Cosmos 2333 4.3 04:13:02 10° NW 04:18:49 72° WSW 04:24:29 10° SSE
COSMOS 2406 3.2 04:14:23 10° SW 04:20:04 76° NW 04:25:47 10° NNE
Cosmos 1758 Rocket 3.8 04:15:44 10° S 04:20:10 78° E 04:24:35 10° NNE
SJ-12 3.7 04:20:31 10° NNE 04:24:20 86° WNW 04:28:09 10° SSW
NOSS 8 (A) 4.5 04:22:46 14° WNW 04:25:04 48° SW 04:28:02 10° SSE
Cosmos 1743 2.9 04:22:31 10° S 04:25:43 61° E 04:28:57 10° NNE
IRS-1C 4.3 04:21:43 10° NNE 04:27:05 84° ESE 04:32:26 10° SSW
COSMOS 2428 3.4 04:21:45 10° NNW 04:27:20 52° NE 04:32:55 10° SE
Cosmos 1484 Rocket 3.5 04:26:42 10° N 04:29:33 24° WNW 04:32:22 10° WSW
Cosmos 1417 Rocket 4.5 04:23:25 10° NNW 04:29:34 82° W 04:35:42 10° S
CZ-2C R/B 4.3 04:28:17 10° NNW 04:29:35 11° NW 04:30:52 10° NW
NOSS 3-4 (A) 3.9 04:25:15 10° W 04:30:41 43° N 04:36:58 10° ENE
NOSS 3-4 (C) 3.9 04:25:24 10° W 04:30:51 43° N 04:37:08 10° ENE
SMAP 3.1 04:26:54 10° N 04:31:31 62° WNW 04:36:07 10° SSW
SAR-Lupe-4 3.5 04:27:58 10° NNE 04:31:31 69° WNW 04:35:03 10° SSW
SPOT 1/Viking Rocket 4.3 04:27:16 10° NNE 04:32:25 58° E 04:37:31 10° S
Cosmos 1238 Rocket 3.0 04:30:33 10° N 04:33:31 48° ENE 04:36:19 10° SSE
SL-16 R/B 3.2 04:28:56 10° NW 04:33:46 29° WSW 04:38:33 10° SSW
Cosmos 2266 Rocket 4.4 04:30:00 10° S 04:36:22 75° E 04:42:42 10° NNE
SAR-Lupe-1 4.0 04:32:57 10° NNE 04:36:35 71° WNW 04:40:10 10° SSW
Cosmos 192 4.4 04:32:17 10° NNW 04:37:15 79° WSW 04:42:08 10° SSE
ATLAS 3B R/B 3.2 04:29:54 10° NW 04:37:50 72° NNE 04:45:30 10° ESE
ARIANE 5 R/B 2.5 04:33:12 10° NNE 04:38:25 79° WNW 04:43:37 10° SSW
Landsat 7 3.8 04:33:54 10° N 04:38:32 65° WNW 04:43:08 10° SSW
BREEZE-M DEB (TANK) 4.4 04:37:21 10° WSW 04:39:27 24° S 04:41:27 10° ESE
Cosmos 1833 Rocket 4.0 04:35:33 10° WNW 04:39:52 22° NNW 04:44:10 10° NNE
Cosmos 220 Rocket 4.4 04:36:05 10° WSW 04:39:53 37° NW 04:43:45 10° NNE
Cosmos 2082 Rocket 2.6 04:35:22 10° WSW 04:40:40 41° NW 04:45:59 10° NNE
Cosmos 1733 1.8 04:38:44 10° SSW 04:40:44 47° WNW 04:42:46 10° N
DNEPR-1 R/B 4.5 04:37:04 10° WNW 04:40:50 29° NNW 04:44:38 10° NE
Orbus 7S? 4.2 04:39:43 10° W 04:41:53 22° SW 04:44:13 10° SSE
YAOGAN 1 3.5 04:38:33 10° NNE 04:42:45 52° E 04:46:55 10° S
MOS 1 Rocket 3.6 04:40:09 10° NNE 04:45:29 74° WNW 04:50:50 10° SSW
Cosmos 1626 Rocket 3.7 04:41:28 10° SSW 04:45:49 56° WNW 04:50:12 10° N
COBE Rocket 3.8 04:44:07 10° SSE 04:48:45 86° ENE 04:53:24 10° NNW
CZ-4 R/B 4.5 04:47:43 10° ENE 04:48:54 11° E 04:50:05 10° ESE
Okean 1-7 Rocket 4.0 04:45:19 10° S 04:49:48 71° E 04:54:18 10° NNE
Cosmos 2285 Rocket 4.5 04:44:02 10° NW 04:50:01 45° WSW 04:56:02 10° S
